Regional Weather Roundup
Issued by NWS

Home | Current Version | Previous Version | Text Only | Print | Product List | Glossary Off
Versions: 1 2 3 4 5 6 7 8 9 10 11 12 13 14 15 16 17 18 19 20 21 22 23 24 25 26 27 28 29 30 31 32 33 34 35 36 37 38 39 40 41 42 43 44 45 46 47 48 49 50

000
ASUS45 KSLC 271210
RWRUT

UTAH REGIONAL WEATHER ROUNDUP
NATIONAL WEATHER SERVICE SALT LAKE CITY UT
600 AM MDT WED MAY 27 2015

UTZ001>011-023>025-271300-

NORTHERN UTAH

CITY           SKY/WX    TMP DP  RH WIND       PRES   REMARKS
BRIGHAM CITY   PTCLDY    49  46  90 CALM      30.06R
HILL AFB       PTCLDY    49  46  88 E12       30.05F
LOGAN          PTCLDY    42  41  96 E3        30.07S FOG
OGDEN          PTCLDY    49  46  90 S6        30.04F
PROVO AIRPORT  CLEAR     48  43  81 SE12      30.08S
SALT LAKE CITY MOCLDY    51  46  83 SE8       30.04S
VERNAL         CLEAR     46  45  96 N3        30.13R
WENDOVER       CLOUDY    52  45  76 N15G31    30.06R
HEBER CITY     CLEAR     36  36 100 SE3       30.12S
WEST JORDAN    CLEAR     50  46  87 S8        30.06S

$$

UTZ012>022-026-027-271300-

SOUTHERN/CENTRAL UTAH

CITY           SKY/WX    TMP DP  RH WIND       PRES   REMARKS
BLANDING       CLEAR     45  42  90 N7        30.21R
BRYCE CANYON   PTCLDY    37  34  89 NW3       30.22S
CEDAR CITY     PTCLDY    46  39  76 S7        30.11S
DELTA          PTCLDY    44  42  91 W3        30.08S
HANKSVILLE     CLEAR     52  43  71 CALM      30.11R
MILFORD        CLOUDY    50  46  86 SW7       30.08S
MOAB/CYNLANDS  CLEAR     51  45  79 CALM      30.08R
PRICE          MOCLDY    44  38  79 N3        30.13R
ST GEORGE      SUNNY     61  34  36 S5        30.02R

$$

REGIONAL REPORTS     COLORADO/ARIZONA

CITY           SKY/WX    TMP DP  RH WIND       PRES   REMARKS
CRAIG, CO      CLOUDY    47  44  90 SE5       30.16R
GRAND JUNCTION CLEAR     47  46  97 SE5       30.12S
RIFLE          PTCLDY    44  41  89 CALM      30.16R
MONTROSE       PTCLDY    44  41  89 NW5       30.19R
CORTEZ         CLOUDY    41  39  93 E3        30.16S
PAGE, AZ       PTCLDY    59  45  59 CALM      30.06R
GRAND CANYON   MOCLDY    40  35  83 CALM      30.17S
KINGMAN        MOCLDY    55  26  32 SE6       29.99S
FLAGSTAFF      MOCLDY    39  33  79 CALM      30.19S

$$

REGIONAL REPORTS    NEVADA/IDAHO/WYOMING

CITY           SKY/WX    TMP DP  RH WIND       PRES   REMARKS
LAS VEGAS, NV  MOCLDY    72  35  25 SW8       29.87R
ELY            MOCLDY    45  40  82 W5        30.11S
ELKO           PTCLDY    48  45  89 NE3       30.06F
POCATELLO, ID  MOCLDY    46  46 100 N7        30.05R
BURLEY         CLOUDY    52  45  77 SW6       30.00R
EVANSTON, WY   PTCLDY    42  39  89 SW3       30.14S
ROCK SPRINGS   CLEAR     43  39  86 SW12      30.13R
KEMMERER       CLEAR     37  36  93 NW8       30.15S WCI  31

$$


USA.gov is the U.S. government's official web portal to all federal, state and local government web resources and services.